OBJECT AQ, 57204

Orbit data source: Space-Track

You're viewing an Uncataloged Satellite

Recently launched and/or uncataloged satellites may have evolving metadata. Metadata may include but not limited to: Owner, Maufacturer, Bus, Motor, and Mission.

OBJECT AQ, 57204 is a satellite in SSO that was launched on Tue, 27 Jun 2023 UTC via a SOYUZ-2-1B launch vehicle from the Vostochny Cosmodrome (VOSTO). Unknown objects in Earth's orbit typically refer to objects detected orbiting the Earth but have not yet been identified or cataloged. These objects could be anything from previously untracked satellites, spent rocket stages, debris from satellite collisions, or even natural meteoroids temporarily captured by Earth's gravity.

Loading next visibility...
Identifier
57204, 2023-091AQ
Orbit
SSO
Country
Flag of TBDTBD
Related business
Manufacturer
Sputniks
Mission
Operational Commercial Communications
Bus & Motor
CUBESAT 3U?, Unknown motor
Mass
3 kg wet, 3 kg dry
Launch date (UTC)
2023-06-27 (3 years ago)
Launch vehicle
SOYUZ-2-1B
Launch site
Vostochny Cosmodrome (VOSTO)
Object type
Unknown
Shape & HBR
Box, 0.2 m
Radar Cross Section
0.035 m², Medium (>0.1 m² and < 1m²)

Expand to show TLE details & history
Last TLE update: 14 hours ago

TLE from 14 hours ago
0 OBJECT AQ
1 57204U 23091AQ  26206.62524096  .00019032  00000-0  48252-3 0  9992
2 57204  97.5077 278.3101 0004364 284.9092  75.1671 15.39740558170684
Epoch: 2026-07-25T15:00Z
TLE epoch observation values (Epoch: 2026-07-25T15:00:20.818Z)
Latitude
0.00003°
Longitude
109.88852°
Altitude
449.229 km
Speed
7.643 km/s
True Right ascension
18h 33m 14s
True Declination
0° 00' 00"
Sunlit
Object was in full shadow at epoch
Visualization orbit readout
Latitude
Unknown
Longitude
Unknown
Altitude
Unknown
Speed
Unknown
Apparent Right ascension
Unknown
Apparent Declination
Unknown
Sunlit
N/A
Visualization observer readout
Local Sidereal Time
18:03:58
Azimuth
Unknown
Elevation
Unknown
Doppler factor
Unknown
Orbital elements
Apogee altitude
446.797 km
Perigee altitude
440.843 km
Semi-major axis
6,821.957 km
Eccentricity
0.00044
Inclination
97.5077°
RAAN
278.3101°
Arg. of periapsis
284.9092°
True anomaly
75.21545°
Mean anomaly
75.1671°
Eccentric anomaly
75.19127°
Mean motion
3.85194 °/min
Orbital period
93.46 mins
BSTAR
0.00048252
Loading maneuver chart data...
Computing Atmospheric mass density...
Loading historical data...
Loading historical data...
Loading historical data...
Loading historical data...
Loading historical data...
Loading historical data...
Loading historical data...

Documentation

Showing up to 5 results
|